Change the Weather History Date:

Wednesday, December 26, 2012

  Actual Average (KTHA) Record (KTHA)
Temperature  
Mean Temperature 40 °F -  
Max Temperature 51 °F 46 °F 51 °F (2012)
Min Temperature 30 °F 27 °F 23 °F (2013)
Degree Days  
Heating Degree Days 24    
Moisture  
Dew Point 35 °F    
Average Humidity 91    
Maximum Humidity 100    
Minimum Humidity 81    
Precipitation  
Precipitation 0.00 in - - ()
Sea Level Pressure  
Sea Level Pressure 29.70 in    
Wind  
Wind Speed 17 mph (West)    
Max Wind Speed 33 mph    
Max Gust Speed 45 mph    
Visibility 8 miles    
Events      
Averages and records for this station are not official NWS values.
T = Trace of Precipitation, MM = Missing Value Source: NWS Daily Summary

Daily Weather History Graph

Daily Weather History Graph

Search for Another Location

Airport or City:

Trip Planner

Search our weather history database for the weather conditions in past years. The results will help you decide how hot, cold, wet, or windy it might be!

Date:

Astronomy

Dec. 26, 2012 Rise Set
Actual Time 7:51 AM EST 5:39 PM EST
Civil Twilight 7:22 AM EST 6:07 PM EST
Nautical Twilight 6:51 AM EST 6:39 PM EST
Astronomical Twilight 6:20 AM EST 7:10 PM EST
Moon 4:31 PM EST (12/26) 6:15 AM EST (12/26)
Length of Visible Light 10h 44m
Length of Day
9h 47m
Waxing Gibbous, 97% of the Moon is Illuminated
Dec 26
Waxing Gibbous
Dec 28
Full
Jan 4
Last Quarter
Jan 11
New
Jan 18
First Quarter

Hourly Weather History & Observations

Time (EST) Temp. Windchill Dew Point Humidity Pressure Visibility Wind Dir Wind Speed Gust Speed Precip Events Conditions
12:15 AM 50.0 °F - 46.4 °F 87% 29.51 in 9.0 mi ESE 29.9 mph 42.6 mph N/A   Overcast
12:35 AM 50.0 °F - 46.4 °F 87% 29.48 in 10.0 mi SE 33.4 mph 44.9 mph N/A   Mostly Cloudy
12:55 AM 50.0 °F - 46.4 °F 87% 29.47 in 10.0 mi SE 32.2 mph 43.7 mph N/A   Mostly Cloudy
1:35 AM 48.2 °F - 46.4 °F 93% 29.45 in 7.0 mi SE 20.7 mph - N/A   Overcast
1:55 AM 48.2 °F - 46.4 °F 93% 29.43 in 8.0 mi SE 21.9 mph 31.1 mph N/A   Overcast
2:15 AM 51.8 °F - 46.4 °F 82% 29.43 in 10.0 mi SE 15.0 mph - N/A   Overcast
2:35 AM 51.8 °F - 46.4 °F 82% 29.40 in 10.0 mi SE 19.6 mph - N/A   Overcast
2:55 AM 51.8 °F - 48.2 °F 88% 29.41 in 10.0 mi SE 16.1 mph - N/A   Overcast
3:15 AM 51.8 °F - 48.2 °F 88% 29.41 in 10.0 mi SSE 19.6 mph 27.6 mph N/A   Overcast
3:35 AM 51.8 °F - 48.2 °F 88% 29.41 in 4.0 mi South 13.8 mph - N/A   Overcast
3:55 AM 51.8 °F - 50.0 °F 94% 29.39 in 8.0 mi SSE 20.7 mph - N/A   Overcast
4:15 AM 51.8 °F - 50.0 °F 94% 29.39 in 9.0 mi SSE 11.5 mph - N/A   Overcast
4:35 AM 51.8 °F - 50.0 °F 94% 29.39 in 9.0 mi South 11.5 mph - N/A   Mostly Cloudy
4:55 AM 51.8 °F - 50.0 °F 94% 29.39 in 8.0 mi SSW 9.2 mph - N/A   Overcast
5:15 AM 48.2 °F - 46.4 °F 93% 29.42 in - WSW 13.8 mph - N/A   Unknown
5:35 AM 46.4 °F 41.1 °F 42.8 °F 87% 29.44 in 10.0 mi WSW 11.5 mph - N/A   Overcast
5:55 AM 46.4 °F 40.4 °F 42.8 °F 87% 29.45 in 10.0 mi WSW 13.8 mph - N/A   Overcast
6:15 AM 46.4 °F 40.7 °F 42.8 °F 87% 29.45 in 10.0 mi WSW 12.7 mph - N/A   Overcast
6:35 AM 44.6 °F 38.1 °F 41.0 °F 87% 29.47 in 10.0 mi SW 13.8 mph - N/A   Overcast
6:55 AM 44.6 °F 39.2 °F 39.2 °F 81% 29.48 in 10.0 mi SW 10.4 mph - N/A   Overcast
7:15 AM 44.6 °F 38.1 °F 39.2 °F 81% 29.49 in 10.0 mi WSW 13.8 mph - N/A   Mostly Cloudy
7:35 AM 42.8 °F 35.8 °F 39.2 °F 87% 29.50 in 7.0 mi West 13.8 mph - N/A   Mostly Cloudy
7:55 AM 41.0 °F 33.9 °F 37.4 °F 87% 29.52 in 10.0 mi WSW 12.7 mph - N/A   Overcast
8:15 AM 39.2 °F 31.6 °F 37.4 °F 93% 29.53 in 10.0 mi WSW 12.7 mph - N/A   Overcast
8:35 AM 39.2 °F 30.8 °F 35.6 °F 87% 29.54 in 10.0 mi WSW 15.0 mph - N/A   Overcast
8:55 AM 37.4 °F 30.3 °F 35.6 °F 93% 29.55 in 8.0 mi SW 10.4 mph - N/A   Overcast
9:15 AM 37.4 °F 29.8 °F 35.6 °F 93% 29.56 in 7.0 mi WSW 11.5 mph - N/A   Overcast
9:35 AM 37.4 °F 29.3 °F 35.6 °F 93% 29.57 in 3.0 mi WSW 12.7 mph - N/A   Overcast
9:55 AM 37.4 °F 29.8 °F 35.6 °F 93% 29.58 in 6.0 mi SW 11.5 mph - N/A   Overcast
10:15 AM 37.4 °F 28.9 °F 35.6 °F 93% 29.59 in 10.0 mi SW 13.8 mph - N/A   Overcast
10:35 AM 37.4 °F 28.9 °F 35.6 °F 93% 29.61 in 2.5 mi WSW 13.8 mph - N/A   Overcast
10:55 AM 37.4 °F 27.8 °F 35.6 °F 93% 29.63 in 1.8 mi West 17.3 mph - N/A   Overcast
11:15 AM 35.6 °F 26.2 °F 33.8 °F 93% 29.65 in 4.0 mi West 15.0 mph - N/A   Overcast
11:35 AM 35.6 °F 27.5 °F 33.8 °F 93% 29.66 in 5.0 mi West 11.5 mph - N/A   Overcast
11:55 AM 35.6 °F 27.1 °F 33.8 °F 93% 29.68 in 8.0 mi WSW 12.7 mph - N/A   Overcast
12:15 PM 33.8 °F 25.8 °F 33.8 °F 100% 29.69 in 10.0 mi West 10.4 mph - N/A   Overcast
12:35 PM 33.8 °F 24.8 °F 33.8 °F 100% 29.69 in 5.0 mi West 12.7 mph - N/A   Overcast
12:55 PM 33.8 °F 24.3 °F 32.0 °F 93% 29.70 in 8.0 mi West 13.8 mph - N/A   Overcast
1:15 PM 33.8 °F 25.8 °F 32.0 °F 93% 29.72 in 6.0 mi West 10.4 mph - N/A   Overcast
1:35 PM 32.0 °F 22.5 °F 30.2 °F 93% 29.72 in 7.0 mi West 12.7 mph - N/A   Overcast
1:55 PM 33.8 °F 24.8 °F 30.2 °F 87% 29.73 in 10.0 mi West 12.7 mph - N/A   Overcast
2:15 PM 33.8 °F 24.3 °F 30.2 °F 87% 29.75 in 4.0 mi West 13.8 mph - N/A   Overcast
2:35 PM 33.8 °F 24.8 °F 30.2 °F 87% 29.77 in 9.0 mi WNW 12.7 mph - N/A   Overcast
2:55 PM 32.0 °F 22.1 °F 30.2 °F 93% 29.77 in 8.0 mi WNW 13.8 mph - N/A   Overcast
3:15 PM 32.0 °F 21.2 °F 30.2 °F 93% 29.79 in 6.0 mi West 16.1 mph 21.9 mph N/A   Overcast
3:35 PM 32.0 °F 22.5 °F 28.4 °F 87% 29.81 in 8.0 mi WNW 12.7 mph - N/A   Overcast
3:55 PM 30.2 °F 19.8 °F 28.4 °F 93% 29.82 in 5.0 mi NW 13.8 mph - N/A   Overcast
4:15 PM 30.2 °F 19.3 °F 28.4 °F 93% 29.84 in 7.0 mi WNW 15.0 mph - N/A   Overcast
4:35 PM 30.2 °F 19.8 °F 28.4 °F 93% 29.85 in 4.0 mi WNW 13.8 mph - N/A   Overcast
4:55 PM 30.2 °F 18.9 °F 28.4 °F 93% 29.86 in 7.0 mi WNW 16.1 mph - N/A   Overcast
5:15 PM 30.2 °F 18.5 °F 28.4 °F 93% 29.87 in 9.0 mi WNW 17.3 mph - N/A   Overcast
5:35 PM 30.2 °F 20.2 °F 28.4 °F 93% 29.88 in 10.0 mi WNW 12.7 mph - N/A   Overcast
5:55 PM 30.2 °F 19.3 °F 28.4 °F 93% 29.90 in 10.0 mi WNW 15.0 mph - N/A   Overcast
6:15 PM 30.2 °F 20.8 °F 28.4 °F 93% 29.92 in 9.0 mi WNW 11.5 mph - N/A   Overcast
6:35 PM 30.2 °F 19.8 °F 28.4 °F 93% 29.94 in 6.0 mi WNW 13.8 mph - N/A   Overcast
6:55 PM 30.2 °F 21.9 °F 28.4 °F 93% 29.95 in 6.0 mi NW 9.2 mph - N/A   Overcast
7:15 PM 30.2 °F 19.8 °F 28.4 °F 93% 29.97 in 7.0 mi WNW 13.8 mph - N/A   Overcast
7:35 PM 30.2 °F 21.3 °F 28.4 °F 93% 29.98 in 10.0 mi NW 10.4 mph - N/A   Overcast
7:55 PM 30.2 °F 20.8 °F 28.4 °F 93% 29.98 in 9.0 mi NW 11.5 mph - N/A   Overcast
8:15 PM 30.2 °F 19.3 °F 28.4 °F 93% 29.99 in 10.0 mi WNW 15.0 mph - N/A   Overcast
8:35 PM 30.2 °F 21.9 °F 28.4 °F 93% 30.01 in 10.0 mi NW 9.2 mph - N/A   Overcast
8:55 PM 30.2 °F 21.3 °F 28.4 °F 93% 30.01 in 10.0 mi WNW 10.4 mph - N/A   Overcast
9:15 PM 30.2 °F 21.9 °F 28.4 °F 93% 30.02 in 10.0 mi NW 9.2 mph - N/A   Overcast
9:35 PM 30.2 °F 21.3 °F 28.4 °F 93% 30.02 in 10.0 mi NW 10.4 mph - N/A   Overcast
9:55 PM 30.2 °F 22.6 °F 28.4 °F 93% 30.02 in 10.0 mi NW 8.1 mph - N/A   Overcast
10:15 PM 30.2 °F 22.6 °F 28.4 °F 93% 30.04 in 10.0 mi NW 8.1 mph - N/A   Overcast
10:35 PM 30.2 °F 21.3 °F 28.4 °F 93% 30.05 in 10.0 mi NW 10.4 mph - N/A   Overcast
10:55 PM 30.2 °F 22.6 °F 28.4 °F 93% 30.05 in 10.0 mi NW 8.1 mph - N/A   Overcast
11:15 PM 30.2 °F 23.4 °F 28.4 °F 93% 30.06 in 10.0 mi NW 6.9 mph - N/A   Overcast
11:35 PM 30.2 °F 20.8 °F 28.4 °F 93% 30.06 in 10.0 mi NW 11.5 mph - N/A   Overcast
11:55 PM 30.2 °F 22.6 °F 28.4 °F 93% 30.06 in 10.0 mi NW 8.1 mph - N/A   Overcast